Location: Hengforden
(52.3167°N, 6.1333°E)
Time: 15:24:58
(UTC+00:00)

Cosmos 1869 Rocket - Pass Details

Date: 14 June 2025
Orbit: 598 x 627 km, 82.5° (Epoch: 20 July)

Event Time Altitude Azimuth Distance (km) Brightness Sun altitude
Rises 21:38:08 0° 348° (NNW) 2,910 8.7 -10.1°
Reaches altitude 10° 21:40:23 10° 349° (NNW) 1,994 7.6 -10.3°
Maximum altitude 21:44:49 88° 260° (W) 622 3.6 -10.6°
Enters shadow 21:48:32 14° 172° (S) 1,706 5.2 -10.8°
